Tracking 22879 objects as of 22-Apr-2021
HD Live streaming from Space Station
objects crossing your sky now

GRBALPHA

Track GRBALPHA now!
10-day predictions
GRBALPHA is classified as:


NORAD ID: 47941
Int'l Code: 2021-022K
Perigee: 541.3 km
Apogee: 572.4 km
Inclination: 97.6 °
Period: 95.6 minutes
Semi major axis: 6927 km
RCS: Unknown
Launch date: March 22, 2021
Source: (TBD)
Launch site: TYURATAM MISSILE AND SPACE COMPLEX (TTMTR)

Uplink (MHz):
Downlink (MHz): 437.025
Beacon (MHz): 437.025
Mode: 9600bps GFSK CW
Call sign: OM9GRB
Status: Active

aabbcc
Your satellite tracking list
Your tracking list is empty




NASA's NSSDC Master Catalog

Two Line Element Set (TLE):
1 47941U 21022K   21111.76969655  .00000440  00000-0  34660-4 0  9992
2 47941  97.5626  15.0548 0022477 140.9787 304.9708 15.05593252  4522
Source of the keplerian elements: AFSPC